Date_Time,Julian_Date,Latitude,Longitude,Instrument_Depth,U,V,Speed,Direction
(yyyy-mm-dd hh:mn:ss UTC),(JD),(+ deg. North),(+ deg. East),(m),(cm/s),(cm/s),(cm/s),(deg True)
1981-06-01 18:00:00 UTC,2444757.250000,28.7333,-95.2403,0109,3.03,10.57,11.0000,16.0000
1981-06-01 18:30:00 UTC,2444757.270833,28.7333,-95.2403,0109,4.65,9.97,11.0000,25.0000
1981-06-01 19:00:00 UTC,2444757.291667,28.7333,-95.2403,0109,5.00,8.66,10.0000,30.0000
1981-06-01 19:30:00 UTC,2444757.312500,28.7333,-95.2403,0109,5.54,7.09,9.0000,38.0000
1981-06-01 20:00:00 UTC,2444757.333333,28.7333,-95.2403,0109,5.80,3.91,7.0000,56.0000
1981-06-01 20:30:00 UTC,2444757.354167,28.7333,-95.2403,0109,4.98,0.44,5.0000,85.0000
1981-06-01 21:00:00 UTC,2444757.375000,28.7333,-95.2403,0109,3.21,-3.83,5.0000,140.0000
1981-06-01 21:30:00 UTC,2444757.395833,28.7333,-95.2403,0109,-1.10,-8.93,9.0000,187.0000
1981-06-01 22:00:00 UTC,2444757.416667,28.7333,-95.2403,0109,-5.69,-12.79,14.0000,204.0000
1981-06-01 22:30:00 UTC,2444757.437500,28.7333,-95.2403,0109,-8.73,-15.74,18.0000,209.0000
1981-06-01 23:00:00 UTC,2444757.458333,28.7333,-95.2403,0109,-10.89,-16.77,20.0000,213.0000
1981-06-01 23:30:00 UTC,2444757.479167,28.7333,-95.2403,0109,-12.93,-17.80,22.0000,216.0000
1981-06-02 00:00:00 UTC,2444757.500000,28.7333,-95.2403,0109,-13.85,-17.10,22.0000,219.0000
1981-06-02 00:30:00 UTC,2444757.520833,28.7333,-95.2403,0109,-14.43,-16.60,22.0000,221.0000
1981-06-02 01:00:00 UTC,2444757.541667,28.7333,-95.2403,0109,-15.69,-16.82,23.0000,223.0000
1981-06-02 01:30:00 UTC,2444757.562500,28.7333,-95.2403,0109,-16.26,-16.26,23.0000,225.0000
1981-06-02 02:00:00 UTC,2444757.583333,28.7333,-95.2403,0109,-18.11,-15.75,24.0000,229.0000
1981-06-02 02:30:00 UTC,2444757.604167,28.7333,-95.2403,0109,-20.35,-12.72,24.0000,238.0000
1981-06-02 03:00:00 UTC,2444757.625000,28.7333,-95.2403,0109,-19.18,-8.54,21.0000,246.0000
1981-06-02 03:30:00 UTC,2444757.645833,28.7333,-95.2403,0109,-16.26,-4.97,17.0000,253.0000
1981-06-02 04:00:00 UTC,2444757.666667,28.7333,-95.2403,0109,-12.98,-0.68,13.0000,267.0000
1981-06-02 04:30:00 UTC,2444757.687500,28.7333,-95.2403,0109,-9.51,3.09,10.0000,288.0000
1981-06-02 05:00:00 UTC,2444757.708333,28.7333,-95.2403,0109,-7.19,5.42,9.0000,307.0000
1981-06-02 05:30:00 UTC,2444757.729167,28.7333,-95.2403,0109,-6.95,7.19,10.0000,316.0000
1981-06-02 06:00:00 UTC,2444757.750000,28.7333,-95.2403,0109,-5.99,9.23,11.0000,327.0000
1981-06-02 06:30:00 UTC,2444757.770833,28.7333,-95.2403,0109,-4.66,12.14,13.0000,339.0000
1981-06-02 07:00:00 UTC,2444757.791667,28.7333,-95.2403,0109,-3.39,13.58,14.0000,346.0000
1981-06-02 07:30:00 UTC,2444757.812500,28.7333,-95.2403,0109,-2.35,14.82,15.0000,351.0000
1981-06-02 08:00:00 UTC,2444757.833333,28.7333,-95.2403,0109,-2.23,15.84,16.0000,352.0000
1981-06-02 08:30:00 UTC,2444757.854167,28.7333,-95.2403,0109,-1.67,15.91,16.0000,354.0000
1981-06-02 09:00:00 UTC,2444757.875000,28.7333,-95.2403,0109,-0.63,17.99,18.0000,358.0000
1981-06-02 09:30:00 UTC,2444757.895833,28.7333,-95.2403,0109,-0.33,19.00,19.0000,359.0000
1981-06-02 10:00:00 UTC,2444757.916667,28.7333,-95.2403,0109,-0.33,19.00,19.0000,359.0000
1981-06-02 10:30:00 UTC,2444757.937500,28.7333,-95.2403,0109,-0.31,18.00,18.0000,359.0000
1981-06-02 11:00:00 UTC,2444757.958333,28.7333,-95.2403,0109,-0.31,18.00,18.0000,359.0000
1981-06-02 11:30:00 UTC,2444757.979167,28.7333,-95.2403,0109,-1.12,15.96,16.0000,356.0000
1981-06-02 12:00:00 UTC,2444758.000000,28.7333,-95.2403,0109,-2.23,15.84,16.0000,352.0000
1981-06-02 12:30:00 UTC,2444758.020833,28.7333,-95.2403,0109,-2.78,15.76,16.0000,350.0000
1981-06-02 13:00:00 UTC,2444758.041667,28.7333,-95.2403,0109,-2.23,15.84,16.0000,352.0000
1981-06-02 13:30:00 UTC,2444758.062500,28.7333,-95.2403,0109,-0.89,16.98,17.0000,357.0000
1981-06-02 14:00:00 UTC,2444758.083333,28.7333,-95.2403,0109,0.63,17.99,18.0000,2.0000
1981-06-02 14:30:00 UTC,2444758.104167,28.7333,-95.2403,0109,2.51,17.82,18.0000,8.0000
1981-06-02 15:00:00 UTC,2444758.125000,28.7333,-95.2403,0109,4.92,18.35,19.0000,15.0000
1981-06-02 15:30:00 UTC,2444758.145833,28.7333,-95.2403,0109,7.12,17.62,19.0000,22.0000
1981-06-02 16:00:00 UTC,2444758.166667,28.7333,-95.2403,0109,7.61,16.31,18.0000,25.0000
1981-06-02 16:30:00 UTC,2444758.187500,28.7333,-95.2403,0109,6.74,16.69,18.0000,22.0000
1981-06-02 17:00:00 UTC,2444758.208333,28.7333,-95.2403,0109,6.45,16.80,18.0000,21.0000
1981-06-02 17:30:00 UTC,2444758.229167,28.7333,-95.2403,0109,6.45,16.80,18.0000,21.0000
1981-06-02 18:00:00 UTC,2444758.250000,28.7333,-95.2403,0109,6.81,17.74,19.0000,21.0000
1981-06-02 18:30:00 UTC,2444758.270833,28.7333,-95.2403,0109,8.13,18.27,20.0000,24.0000
1981-06-02 19:00:00 UTC,2444758.291667,28.7333,-95.2403,0109,9.50,16.45,19.0000,30.0000
1981-06-02 19:30:00 UTC,2444758.312500,28.7333,-95.2403,0109,10.58,14.56,18.0000,36.0000
1981-06-02 20:00:00 UTC,2444758.333333,28.7333,-95.2403,0109,10.50,12.08,16.0000,41.0000
1981-06-02 20:30:00 UTC,2444758.354167,28.7333,-95.2403,0109,11.15,10.04,15.0000,48.0000
1981-06-02 21:00:00 UTC,2444758.375000,28.7333,-95.2403,0109,11.61,7.83,14.0000,56.0000
1981-06-02 21:30:00 UTC,2444758.395833,28.7333,-95.2403,0109,11.13,4.50,12.0000,68.0000
1981-06-02 22:00:00 UTC,2444758.416667,28.7333,-95.2403,0109,9.93,1.22,10.0000,83.0000
1981-06-02 22:30:00 UTC,2444758.437500,28.7333,-95.2403,0109,7.69,-2.21,8.0000,106.0000
1981-06-02 23:00:00 UTC,2444758.458333,28.7333,-95.2403,0109,4.59,-5.28,7.0000,139.0000
1981-06-02 23:30:00 UTC,2444758.479167,28.7333,-95.2403,0109,1.69,-6.79,7.0000,166.0000
1981-06-03 00:00:00 UTC,2444758.500000,28.7333,-95.2403,0109,-0.12,-7.00,7.0000,181.0000
1981-06-03 00:30:00 UTC,2444758.520833,28.7333,-95.2403,0109,-1.10,-6.91,7.0000,189.0000
1981-06-03 01:00:00 UTC,2444758.541667,28.7333,-95.2403,0109,-2.07,-7.73,8.0000,195.0000
1981-06-03 01:30:00 UTC,2444758.562500,28.7333,-95.2403,0109,-2.78,-8.56,9.0000,198.0000
1981-06-03 02:00:00 UTC,2444758.583333,28.7333,-95.2403,0109,-2.34,-7.65,8.0000,197.0000
1981-06-03 02:30:00 UTC,2444758.604167,28.7333,-95.2403,0109,-1.53,-7.85,8.0000,191.0000
1981-06-03 03:00:00 UTC,2444758.625000,28.7333,-95.2403,0109,-0.56,-7.98,8.0000,184.0000
1981-06-03 03:30:00 UTC,2444758.645833,28.7333,-95.2403,0109,0.14,-8.00,8.0000,179.0000
1981-06-03 04:00:00 UTC,2444758.666667,28.7333,-95.2403,0109,0.52,-5.98,6.0000,175.0000
1981-06-03 04:30:00 UTC,2444758.687500,28.7333,-95.2403,0109,0.42,-5.99,6.0000,176.0000
1981-06-03 05:00:00 UTC,2444758.708333,28.7333,-95.2403,0109,0.10,-6.00,6.0000,179.0000
1981-06-03 05:30:00 UTC,2444758.729167,28.7333,-95.2403,0109,0.17,-5.00,5.0000,178.0000
1981-06-03 06:00:00 UTC,2444758.750000,28.7333,-95.2403,0109,0.21,-0.98,1.0000,168.0000
1981-06-03 06:30:00 UTC,2444758.770833,28.7333,-95.2403,0109,0.97,3.88,4.0000,14.0000
1981-06-03 07:00:00 UTC,2444758.791667,28.7333,-95.2403,0109,2.85,6.39,7.0000,24.0000
1981-06-03 07:30:00 UTC,2444758.812500,28.7333,-95.2403,0109,2.62,6.49,7.0000,22.0000
1981-06-03 08:00:00 UTC,2444758.833333,28.7333,-95.2403,0109,1.75,5.74,6.0000,17.0000
1981-06-03 08:30:00 UTC,2444758.854167,28.7333,-95.2403,0109,1.79,4.67,5.0000,21.0000
1981-06-03 09:00:00 UTC,2444758.875000,28.7333,-95.2403,0109,1.22,2.74,3.0000,24.0000
1981-06-03 09:30:00 UTC,2444758.895833,28.7333,-95.2403,0109,0.88,1.80,2.0000,26.0000
1981-06-03 10:00:00 UTC,2444758.916667,28.7333,-95.2403,0109,1.20,1.60,2.0000,37.0000
1981-06-03 10:30:00 UTC,2444758.937500,28.7333,-95.2403,0109,1.51,1.31,2.0000,49.0000
1981-06-03 11:00:00 UTC,2444758.958333,28.7333,-95.2403,0109,0.71,-0.71,1.0000,135.0000
1981-06-03 11:30:00 UTC,2444758.979167,28.7333,-95.2403,0109,0.78,-2.90,3.0000,165.0000
1981-06-03 12:00:00 UTC,2444759.000000,28.7333,-95.2403,0109,0.95,-4.91,5.0000,169.0000
1981-06-03 12:30:00 UTC,2444759.020833,28.7333,-95.2403,0109,1.35,-5.85,6.0000,167.0000
1981-06-03 13:00:00 UTC,2444759.041667,28.7333,-95.2403,0109,1.65,-5.77,6.0000,164.0000
1981-06-03 13:30:00 UTC,2444759.062500,28.7333,-95.2403,0109,1.38,-4.81,5.0000,164.0000
1981-06-03 14:00:00 UTC,2444759.083333,28.7333,-95.2403,0109,0.81,-1.83,2.0000,156.0000
1981-06-03 14:30:00 UTC,2444759.104167,28.7333,-95.2403,0109,1.96,-0.42,2.0000,102.0000
1981-06-03 15:00:00 UTC,2444759.125000,28.7333,-95.2403,0109,2.40,1.81,3.0000,53.0000
1981-06-03 15:30:00 UTC,2444759.145833,28.7333,-95.2403,0109,3.08,3.94,5.0000,38.0000
1981-06-03 16:00:00 UTC,2444759.166667,28.7333,-95.2403,0109,3.86,4.60,6.0000,40.0000
1981-06-03 16:30:00 UTC,2444759.187500,28.7333,-95.2403,0109,3.43,2.06,4.0000,59.0000
1981-06-03 17:00:00 UTC,2444759.208333,28.7333,-95.2403,0109,2.85,-0.93,3.0000,108.0000
1981-06-03 17:30:00 UTC,2444759.229167,28.7333,-95.2403,0109,3.60,-3.47,5.0000,134.0000
1981-06-03 18:00:00 UTC,2444759.250000,28.7333,-95.2403,0109,4.59,-5.28,7.0000,139.0000
1981-06-03 18:30:00 UTC,2444759.270833,28.7333,-95.2403,0109,4.21,-5.59,7.0000,143.0000
1981-06-03 19:00:00 UTC,2444759.291667,28.7333,-95.2403,0109,4.21,-5.59,7.0000,143.0000
1981-06-03 19:30:00 UTC,2444759.312500,28.7333,-95.2403,0109,4.41,-5.44,7.0000,141.0000
1981-06-03 20:00:00 UTC,2444759.333333,28.7333,-95.2403,0109,4.01,-4.46,6.0000,138.0000
1981-06-03 20:30:00 UTC,2444759.354167,28.7333,-95.2403,0109,4.01,-4.46,6.0000,138.0000
1981-06-03 21:00:00 UTC,2444759.375000,28.7333,-95.2403,0109,4.41,-5.44,7.0000,141.0000
1981-06-03 21:30:00 UTC,2444759.395833,28.7333,-95.2403,0109,4.00,-6.93,8.0000,150.0000
1981-06-03 22:00:00 UTC,2444759.416667,28.7333,-95.2403,0109,3.23,-8.40,9.0000,159.0000
1981-06-03 22:30:00 UTC,2444759.437500,28.7333,-95.2403,0109,3.91,-11.35,12.0000,161.0000
1981-06-03 23:00:00 UTC,2444759.458333,28.7333,-95.2403,0109,4.09,-13.39,14.0000,163.0000
1981-06-03 23:30:00 UTC,2444759.479167,28.7333,-95.2403,0109,4.69,-16.34,17.0000,164.0000
1981-06-04 00:00:00 UTC,2444759.500000,28.7333,-95.2403,0109,5.51,-19.23,20.0000,164.0000
1981-06-04 00:30:00 UTC,2444759.520833,28.7333,-95.2403,0109,6.06,-21.15,22.0000,164.0000
1981-06-04 01:00:00 UTC,2444759.541667,28.7333,-95.2403,0109,4.37,-20.54,21.0000,168.0000
1981-06-04 01:30:00 UTC,2444759.562500,28.7333,-95.2403,0109,3.47,-19.70,20.0000,170.0000
1981-06-04 02:00:00 UTC,2444759.583333,28.7333,-95.2403,0109,2.44,-19.85,20.0000,173.0000
1981-06-04 02:30:00 UTC,2444759.604167,28.7333,-95.2403,0109,0.00,-20.00,20.0000,180.0000
1981-06-04 03:00:00 UTC,2444759.625000,28.7333,-95.2403,0109,-4.92,-18.35,19.0000,195.0000
1981-06-04 03:30:00 UTC,2444759.645833,28.7333,-95.2403,0109,-10.32,-14.74,18.0000,215.0000
1981-06-04 04:00:00 UTC,2444759.666667,28.7333,-95.2403,0109,-12.78,-9.63,16.0000,233.0000
1981-06-04 04:30:00 UTC,2444759.687500,28.7333,-95.2403,0109,-13.37,-6.81,15.0000,243.0000
1981-06-04 05:00:00 UTC,2444759.708333,28.7333,-95.2403,0109,-14.38,-7.01,16.0000,244.0000
1981-06-04 05:30:00 UTC,2444759.729167,28.7333,-95.2403,0109,-13.81,-5.86,15.0000,247.0000
1981-06-04 06:00:00 UTC,2444759.750000,28.7333,-95.2403,0109,-13.16,-4.79,14.0000,250.0000
1981-06-04 06:30:00 UTC,2444759.770833,28.7333,-95.2403,0109,-11.35,-3.91,12.0000,251.0000
1981-06-04 07:00:00 UTC,2444759.791667,28.7333,-95.2403,0109,-9.40,-3.42,10.0000,250.0000
1981-06-04 07:30:00 UTC,2444759.812500,28.7333,-95.2403,0109,-7.69,-2.21,8.0000,254.0000
1981-06-04 08:00:00 UTC,2444759.833333,28.7333,-95.2403,0109,-5.98,-0.52,6.0000,265.0000
1981-06-04 08:30:00 UTC,2444759.854167,28.7333,-95.2403,0109,-4.83,1.29,5.0000,285.0000
1981-06-04 09:00:00 UTC,2444759.875000,28.7333,-95.2403,0109,-4.29,2.58,5.0000,301.0000
1981-06-04 09:30:00 UTC,2444759.895833,28.7333,-95.2403,0109,-3.28,2.29,4.0000,305.0000
1981-06-04 10:00:00 UTC,2444759.916667,28.7333,-95.2403,0109,-3.50,1.94,4.0000,299.0000
1981-06-04 10:30:00 UTC,2444759.937500,28.7333,-95.2403,0109,-5.39,2.63,6.0000,296.0000
1981-06-04 11:00:00 UTC,2444759.958333,28.7333,-95.2403,0109,-6.29,3.07,7.0000,296.0000
1981-06-04 11:30:00 UTC,2444759.979167,28.7333,-95.2403,0109,-5.35,2.72,6.0000,297.0000
1981-06-04 12:00:00 UTC,2444760.000000,28.7333,-95.2403,0109,-4.57,2.03,5.0000,294.0000
1981-06-04 12:30:00 UTC,2444760.020833,28.7333,-95.2403,0109,-2.97,0.42,3.0000,278.0000
1981-06-04 13:00:00 UTC,2444760.041667,28.7333,-95.2403,0109,-3.00,-0.10,3.0000,268.0000
1981-06-04 13:30:00 UTC,2444760.062500,28.7333,-95.2403,0109,-2.98,-0.37,3.0000,263.0000
1981-06-04 14:00:00 UTC,2444760.083333,28.7333,-95.2403,0109,-1.66,-1.12,2.0000,236.0000
1981-06-04 14:30:00 UTC,2444760.104167,28.7333,-95.2403,0109,-0.38,-1.96,2.0000,191.0000
1981-06-04 15:00:00 UTC,2444760.125000,28.7333,-95.2403,0109,0.37,-2.98,3.0000,173.0000
1981-06-04 15:30:00 UTC,2444760.145833,28.7333,-95.2403,0109,1.10,-3.85,4.0000,164.0000
1981-06-04 16:00:00 UTC,2444760.166667,28.7333,-95.2403,0109,1.69,-3.63,4.0000,155.0000
1981-06-04 16:30:00 UTC,2444760.187500,28.7333,-95.2403,0109,1.88,-3.53,4.0000,152.0000
1981-06-04 17:00:00 UTC,2444760.208333,28.7333,-95.2403,0109,1.30,-3.78,4.0000,161.0000
1981-06-04 17:30:00 UTC,2444760.229167,28.7333,-95.2403,0109,0.31,-2.98,3.0000,174.0000
1981-06-04 18:00:00 UTC,2444760.250000,28.7333,-95.2403,0109,-1.50,-2.60,3.0000,210.0000
1981-06-04 18:30:00 UTC,2444760.270833,28.7333,-95.2403,0109,-2.70,-1.32,3.0000,244.0000
1981-06-04 19:00:00 UTC,2444760.291667,28.7333,-95.2403,0109,-2.93,-0.62,3.0000,258.0000
1981-06-04 19:30:00 UTC,2444760.312500,28.7333,-95.2403,0109,-4.00,0.14,4.0000,272.0000
1981-06-04 20:00:00 UTC,2444760.333333,28.7333,-95.2403,0109,-4.99,0.26,5.0000,273.0000
1981-06-04 20:30:00 UTC,2444760.354167,28.7333,-95.2403,0109,-6.99,-0.37,7.0000,267.0000
1981-06-04 21:00:00 UTC,2444760.375000,28.7333,-95.2403,0109,-8.77,-2.02,9.0000,257.0000
1981-06-04 21:30:00 UTC,2444760.395833,28.7333,-95.2403,0109,-9.06,-4.23,10.0000,245.0000
1981-06-04 22:00:00 UTC,2444760.416667,28.7333,-95.2403,0109,-10.18,-6.36,12.0000,238.0000
1981-06-04 22:30:00 UTC,2444760.437500,28.7333,-95.2403,0109,-11.82,-9.23,15.0000,232.0000
1981-06-04 23:00:00 UTC,2444760.458333,28.7333,-95.2403,0109,-12.63,-11.38,17.0000,228.0000
1981-06-04 23:30:00 UTC,2444760.479167,28.7333,-95.2403,0109,-15.11,-14.59,21.0000,226.0000
1981-06-05 00:00:00 UTC,2444760.500000,28.7333,-95.2403,0109,-17.26,-16.67,24.0000,226.0000
1981-06-05 00:30:00 UTC,2444760.520833,28.7333,-95.2403,0109,-20.48,-19.10,28.0000,227.0000
1981-06-05 01:00:00 UTC,2444760.541667,28.7333,-95.2403,0109,-23.04,-20.74,31.0000,228.0000
1981-06-05 01:30:00 UTC,2444760.562500,28.7333,-95.2403,0109,-26.41,-22.96,35.0000,229.0000
1981-06-05 02:00:00 UTC,2444760.583333,28.7333,-95.2403,0109,-30.31,-24.54,39.0000,231.0000
1981-06-05 02:30:00 UTC,2444760.604167,28.7333,-95.2403,0109,-31.52,-24.63,40.0000,232.0000
1981-06-05 03:00:00 UTC,2444760.625000,28.7333,-95.2403,0109,-32.64,-26.43,42.0000,231.0000
1981-06-05 03:30:00 UTC,2444760.645833,28.7333,-95.2403,0109,-32.94,-27.64,43.0000,230.0000
1981-06-05 04:00:00 UTC,2444760.666667,28.7333,-95.2403,0109,-32.94,-27.64,43.0000,230.0000
1981-06-05 04:30:00 UTC,2444760.687500,28.7333,-95.2403,0109,-31.21,-28.10,42.0000,228.0000
1981-06-05 05:00:00 UTC,2444760.708333,28.7333,-95.2403,0109,-30.72,-28.64,42.0000,227.0000
1981-06-05 05:30:00 UTC,2444760.729167,28.7333,-95.2403,0109,-32.31,-25.24,41.0000,232.0000
1981-06-05 06:00:00 UTC,2444760.750000,28.7333,-95.2403,0109,-33.55,-21.79,40.0000,237.0000
1981-06-05 06:30:00 UTC,2444760.770833,28.7333,-95.2403,0109,-33.92,-21.20,40.0000,238.0000
1981-06-05 07:00:00 UTC,2444760.791667,28.7333,-95.2403,0109,-33.55,-21.79,40.0000,237.0000
1981-06-05 07:30:00 UTC,2444760.812500,28.7333,-95.2403,0109,-35.14,-21.12,41.0000,239.0000
1981-06-05 08:00:00 UTC,2444760.833333,28.7333,-95.2403,0109,-37.75,-18.41,42.0000,244.0000
1981-06-05 08:30:00 UTC,2444760.854167,28.7333,-95.2403,0109,-36.25,-16.90,40.0000,245.0000
1981-06-05 09:00:00 UTC,2444760.875000,28.7333,-95.2403,0109,-31.19,-15.89,35.0000,243.0000
1981-06-05 09:30:00 UTC,2444760.895833,28.7333,-95.2403,0109,-25.71,-15.45,30.0000,239.0000
1981-06-05 10:00:00 UTC,2444760.916667,28.7333,-95.2403,0109,-22.12,-15.49,27.0000,235.0000
1981-06-05 10:30:00 UTC,2444760.937500,28.7333,-95.2403,0109,-19.15,-16.07,25.0000,230.0000
1981-06-05 11:00:00 UTC,2444760.958333,28.7333,-95.2403,0109,-18.38,-18.38,26.0000,225.0000
1981-06-05 11:30:00 UTC,2444760.979167,28.7333,-95.2403,0109,-18.37,-21.13,28.0000,221.0000
1981-06-05 12:00:00 UTC,2444761.000000,28.7333,-95.2403,0109,-19.51,-24.09,31.0000,219.0000
1981-06-05 12:30:00 UTC,2444761.020833,28.7333,-95.2403,0109,-19.70,-25.22,32.0000,218.0000
1981-06-05 13:00:00 UTC,2444761.041667,28.7333,-95.2403,0109,-19.86,-26.36,33.0000,217.0000
1981-06-05 13:30:00 UTC,2444761.062500,28.7333,-95.2403,0109,-19.98,-27.51,34.0000,216.0000
1981-06-05 14:00:00 UTC,2444761.083333,28.7333,-95.2403,0109,-20.57,-28.32,35.0000,216.0000
1981-06-05 14:30:00 UTC,2444761.104167,28.7333,-95.2403,0109,-21.06,-27.95,35.0000,217.0000
1981-06-05 15:00:00 UTC,2444761.125000,28.7333,-95.2403,0109,-21.06,-27.95,35.0000,217.0000
1981-06-05 15:30:00 UTC,2444761.145833,28.7333,-95.2403,0109,-20.93,-26.79,34.0000,218.0000
1981-06-05 16:00:00 UTC,2444761.166667,28.7333,-95.2403,0109,-21.85,-26.05,34.0000,220.0000
1981-06-05 16:30:00 UTC,2444761.187500,28.7333,-95.2403,0109,-21.85,-26.05,34.0000,220.0000
1981-06-05 17:00:00 UTC,2444761.208333,28.7333,-95.2403,0109,-22.31,-25.66,34.0000,221.0000
1981-06-05 17:30:00 UTC,2444761.229167,28.7333,-95.2403,0109,-23.19,-24.87,34.0000,223.0000
1981-06-05 18:00:00 UTC,2444761.250000,28.7333,-95.2403,0109,-23.19,-24.87,34.0000,223.0000
1981-06-05 18:30:00 UTC,2444761.270833,28.7333,-95.2403,0109,-22.96,-26.41,35.0000,221.0000
1981-06-05 19:00:00 UTC,2444761.291667,28.7333,-95.2403,0109,-21.41,-23.78,32.0000,222.0000
1981-06-05 19:30:00 UTC,2444761.312500,28.7333,-95.2403,0109,-19.42,-18.76,27.0000,226.0000
1981-06-05 20:00:00 UTC,2444761.333333,28.7333,-95.2403,0109,-17.62,-14.78,23.0000,230.0000
1981-06-05 20:30:00 UTC,2444761.354167,28.7333,-95.2403,0109,-16.82,-15.69,23.0000,227.0000
1981-06-05 21:00:00 UTC,2444761.375000,28.7333,-95.2403,0109,-17.26,-16.67,24.0000,226.0000
1981-06-05 21:30:00 UTC,2444761.395833,28.7333,-95.2403,0109,-19.43,-15.73,25.0000,231.0000
1981-06-05 22:00:00 UTC,2444761.416667,28.7333,-95.2403,0109,-20.13,-13.07,24.0000,237.0000
1981-06-05 22:30:00 UTC,2444761.437500,28.7333,-95.2403,0109,-20.13,-13.07,24.0000,237.0000
1981-06-05 23:00:00 UTC,2444761.458333,28.7333,-95.2403,0109,-21.55,-19.40,29.0000,228.0000
1981-06-05 23:30:00 UTC,2444761.479167,28.7333,-95.2403,0109,-25.23,-27.06,37.0000,223.0000
1981-06-06 00:00:00 UTC,2444761.500000,28.7333,-95.2403,0109,-27.96,-29.99,41.0000,223.0000
1981-06-06 00:30:00 UTC,2444761.520833,28.7333,-95.2403,0109,-27.28,-29.25,40.0000,223.0000
1981-06-06 01:00:00 UTC,2444761.541667,28.7333,-95.2403,0109,-27.43,-30.47,41.0000,222.0000
1981-06-06 01:30:00 UTC,2444761.562500,28.7333,-95.2403,0109,-27.55,-31.70,42.0000,221.0000
1981-06-06 02:00:00 UTC,2444761.583333,28.7333,-95.2403,0109,-29.33,-31.45,43.0000,223.0000
1981-06-06 02:30:00 UTC,2444761.604167,28.7333,-95.2403,0109,-28.48,-29.49,41.0000,224.0000
1981-06-06 03:00:00 UTC,2444761.625000,28.7333,-95.2403,0109,-27.33,-26.40,38.0000,226.0000
1981-06-06 03:30:00 UTC,2444761.645833,28.7333,-95.2403,0109,-29.43,-25.59,39.0000,229.0000
1981-06-06 04:00:00 UTC,2444761.666667,28.7333,-95.2403,0109,-30.94,-26.90,41.0000,229.0000
1981-06-06 04:30:00 UTC,2444761.687500,28.7333,-95.2403,0109,-30.21,-29.18,42.0000,226.0000
1981-06-06 05:00:00 UTC,2444761.708333,28.7333,-95.2403,0109,-28.48,-29.49,41.0000,224.0000
1981-06-06 05:30:00 UTC,2444761.729167,28.7333,-95.2403,0109,-26.77,-29.73,40.0000,222.0000
1981-06-06 06:00:00 UTC,2444761.750000,28.7333,-95.2403,0109,-24.55,-26.33,36.0000,223.0000
1981-06-06 06:30:00 UTC,2444761.770833,28.7333,-95.2403,0109,-23.74,-22.92,33.0000,226.0000
1981-06-06 07:00:00 UTC,2444761.791667,28.7333,-95.2403,0109,-21.21,-19.78,29.0000,227.0000
1981-06-06 07:30:00 UTC,2444761.812500,28.7333,-95.2403,0109,-19.32,-17.40,26.0000,228.0000
1981-06-06 08:00:00 UTC,2444761.833333,28.7333,-95.2403,0109,-19.42,-14.11,24.0000,234.0000
1981-06-06 08:30:00 UTC,2444761.854167,28.7333,-95.2403,0109,-21.87,-12.12,25.0000,241.0000
1981-06-06 09:00:00 UTC,2444761.875000,28.7333,-95.2403,0109,-23.37,-11.40,26.0000,244.0000
1981-06-06 09:30:00 UTC,2444761.895833,28.7333,-95.2403,0109,-24.27,-11.84,27.0000,244.0000
1981-06-06 10:00:00 UTC,2444761.916667,28.7333,-95.2403,0109,-24.27,-11.84,27.0000,244.0000
1981-06-06 10:30:00 UTC,2444761.937500,28.7333,-95.2403,0109,-23.75,-10.58,26.0000,246.0000
1981-06-06 11:00:00 UTC,2444761.958333,28.7333,-95.2403,0109,-21.01,-9.35,23.0000,246.0000
1981-06-06 11:30:00 UTC,2444761.979167,28.7333,-95.2403,0109,-17.98,-8.77,20.0000,244.0000
1981-06-06 12:00:00 UTC,2444762.000000,28.7333,-95.2403,0109,-14.42,-9.01,17.0000,238.0000
1981-06-06 12:30:00 UTC,2444762.020833,28.7333,-95.2403,0109,-13.58,-10.23,17.0000,233.0000
1981-06-06 13:00:00 UTC,2444762.041667,28.7333,-95.2403,0109,-14.38,-10.83,18.0000,233.0000
1981-06-06 13:30:00 UTC,2444762.062500,28.7333,-95.2403,0109,-15.43,-9.27,18.0000,239.0000
1981-06-06 14:00:00 UTC,2444762.083333,28.7333,-95.2403,0109,-15.53,-6.91,17.0000,246.0000
1981-06-06 14:30:00 UTC,2444762.104167,28.7333,-95.2403,0109,-16.07,-5.53,17.0000,251.0000
1981-06-06 15:00:00 UTC,2444762.125000,28.7333,-95.2403,0109,-15.45,-4.14,16.0000,255.0000
1981-06-06 15:30:00 UTC,2444762.145833,28.7333,-95.2403,0109,-15.80,-2.50,16.0000,261.0000
1981-06-06 16:00:00 UTC,2444762.166667,28.7333,-95.2403,0109,-14.98,-0.79,15.0000,267.0000
1981-06-06 16:30:00 UTC,2444762.187500,28.7333,-95.2403,0109,-13.00,-0.23,13.0000,269.0000
1981-06-06 17:00:00 UTC,2444762.208333,28.7333,-95.2403,0109,-10.00,-0.00,10.0000,270.0000
1981-06-06 17:30:00 UTC,2444762.229167,28.7333,-95.2403,0109,-7.99,0.42,8.0000,273.0000
1981-06-06 18:00:00 UTC,2444762.250000,28.7333,-95.2403,0109,-6.96,0.73,7.0000,276.0000
1981-06-06 18:30:00 UTC,2444762.270833,28.7333,-95.2403,0109,-5.89,1.14,6.0000,281.0000
1981-06-06 19:00:00 UTC,2444762.291667,28.7333,-95.2403,0109,-4.78,1.46,5.0000,287.0000
1981-06-06 19:30:00 UTC,2444762.312500,28.7333,-95.2403,0109,-4.70,1.71,5.0000,290.0000
1981-06-06 20:00:00 UTC,2444762.333333,28.7333,-95.2403,0109,-3.68,1.56,4.0000,293.0000
1981-06-06 20:30:00 UTC,2444762.354167,28.7333,-95.2403,0109,-3.39,2.12,4.0000,302.0000
1981-06-06 21:00:00 UTC,2444762.375000,28.7333,-95.2403,0109,-2.73,2.93,4.0000,317.0000
1981-06-06 21:30:00 UTC,2444762.395833,28.7333,-95.2403,0109,-1.55,2.57,3.0000,329.0000
1981-06-06 22:00:00 UTC,2444762.416667,28.7333,-95.2403,0109,-0.62,1.90,2.0000,342.0000
1981-06-06 22:30:00 UTC,2444762.437500,28.7333,-95.2403,0109,-0.09,1.00,1.0000,355.0000
1981-06-06 23:00:00 UTC,2444762.458333,28.7333,-95.2403,0109,0.09,1.00,1.0000,5.0000
1981-06-06 23:30:00 UTC,2444762.479167,28.7333,-95.2403,0109,0.00,0.00,0.0000,19.0000
1981-06-07 00:00:00 UTC,2444762.500000,28.7333,-95.2403,0109,0.00,0.00,0.0000,42.0000
1981-06-07 00:30:00 UTC,2444762.520833,28.7333,-95.2403,0109,0.00,-0.00,0.0000,142.0000
1981-06-07 01:00:00 UTC,2444762.541667,28.7333,-95.2403,0109,-0.41,-0.91,1.0000,204.0000
1981-06-07 01:30:00 UTC,2444762.562500,28.7333,-95.2403,0109,-2.35,-3.24,4.0000,216.0000
1981-06-07 02:00:00 UTC,2444762.583333,28.7333,-95.2403,0109,-4.24,-4.24,6.0000,225.0000
1981-06-07 02:30:00 UTC,2444762.604167,28.7333,-95.2403,0109,-5.44,-4.41,7.0000,231.0000
1981-06-07 03:00:00 UTC,2444762.625000,28.7333,-95.2403,0109,-6.30,-4.93,8.0000,232.0000
1981-06-07 03:30:00 UTC,2444762.645833,28.7333,-95.2403,0109,-7.09,-5.54,9.0000,232.0000
1981-06-07 04:00:00 UTC,2444762.666667,28.7333,-95.2403,0109,-7.88,-6.16,10.0000,232.0000
1981-06-07 04:30:00 UTC,2444762.687500,28.7333,-95.2403,0109,-8.90,-6.47,11.0000,234.0000
1981-06-07 05:00:00 UTC,2444762.708333,28.7333,-95.2403,0109,-9.23,-5.99,11.0000,237.0000
1981-06-07 05:30:00 UTC,2444762.729167,28.7333,-95.2403,0109,-11.37,-6.30,13.0000,241.0000
1981-06-07 06:00:00 UTC,2444762.750000,28.7333,-95.2403,0109,-14.38,-7.01,16.0000,244.0000